全球星 M032星 (GLOBALSTAR M032)

导读

GLOBALSTAR M032是全球星星座(Globalstar)的成员卫星,于1999年7月10日发射入轨,服务全球低轨卫星移动通信系统。它运行在高度约1400公里、倾角52°的近地轨道,属于全球星1998-1999年组网的首批卫星之一,主要承担南北纬70°范围内的移动语音、数据通信传输,为偏远无基础设施区域提供卫星链路中转,支持终端信号转发至地面站完成通信连接。

基本信息
目录编号:
25852
目录名称:
GLOBALSTAR M032
国际标识:
1999-037B
轨道中心:
EARTH
卫星名称:
全球星 M032星
卫星全名:
全球星 M032星 (GLOBALSTAR M032)
卫星状态:
在轨 (已飞行9908 天)
发射日期:
1999-07-10 UTC
国别 :
(GLOB)
星等 :
--
轨道信息
数据来源 国际轨道数据
星历时间: 2026-08-24T14:44:48+0800
1天前
查看轨道信息
半长轴: 8442.994km
偏心率: 0.0012696
轨道倾角: 51.998°
近地点辐角 174.320°
升交点赤经 324.439°
平近点角 185.774°
近地点: 2054.137km
远地点: 2075.577km
周期: 128.678分钟
每日圈数: 11.190722
详细信息
固有亮度:
5
最大亮度:
7.9
平衡模式:
三轴稳定
覆盖范围:
全球
运营商:
全球星公司
运营商所在国:
美国
使用方式:
暂无
卫星简介
全球星星座由48颗卫星加8颗备份星组成。这些卫星分布在8个倾角为52度的圆形轨道平面上,每个轨道平面6颗卫星,另有1 颗备用星。轨道高度约为1414km,传输时延和处理时延小于300ms,整个系统的覆盖区为南北纬70度以内的地区。该卫星已退役。
2D轨道图
3D轨道图
轨道高度分析图
轨道倾角分析图
轨道综合分析图
查看轨道综合分析图